[[{"header":{"parameterUnit":"m.s-1","parameterCategory":1,"la1":30.2991,"la2":30.254,"lo1":-89.0895,"lo2":-89.0444,"dy":0.0017,"dx":0.0017,"nx":28,"ny":28,"refTime":"2025-04-10T21:00:00:Z","depth":0,"parameterNumber":2,"parameterNumberName":"U-component_of_WINDS"},"data":[0,0,0,0,0,0,0,0,0,0,0,0,0,0,0,0,0,0,0,0,0,0,0,0,0,0,0,0,0,0,0,0,0,0,0,0,0,0,0,0,0,0,0,0,0,0,0,0,0,0,0,0,0,0,0,0,0,0,1.5706,1.5706,0,1.5749,1.5749,1.5749,1.5742,1.5742,1.5741,1.574,1.5782,1.5784,1.5786,0,0,0,0,0,0,0,0,0,0,0,0,0,1.5618,1.562,1.5706,1.5706,1.5707,1.5748,1.5749,1.575,1.5742,1.5741,1.5741,1.574,1.5782,1.5784,1.5786,0,0,0,0,0,0,0,0,0,0,0,0,0,1.5658,1.562,1.5706,1.5708,1.5709,1.5748,1.5749,1.575,1.5743,1.5741,1.574,1.5739,1.5781,1.5784,1.5786,1.5825,0,0,1.5795,1.5796,0,0,0,0,0,0,0,0,1.5656,1.5661,1.5707,1.5708,1.5709,1.5739,1.5734,1.5775,1.5743,1.573,1.574,1.5739,1.5769,1.5772,1.5783,1.5827,1.5829,1.5795,1.5797,1.5798,1.5799,0,0,0,0,0,0,0,1.5653,1.5659,1.5723,1.5708,1.5709,1.5707,1.5712,1.5741,1.5755,1.5731,1.573,1.5736,1.5769,1.578,1.5784,1.583,1.5795,1.5797,1.5799,1.58,1.591,1.5911,0,0,0,0,0,0,1.5649,1.5657,1.5721,1.5724,1.5679,1.571,1.5715,1.573,1.5755,1.5757,1.5737,1.5735,1.5776,1.5781,1.5785,1.5833,1.5798,1.58,1.5802,1.5908,1.591,1.5911,0,0,0,0,0,0,1.5648,1.5655,1.572,1.569,1.5698,1.5713,1.573,1.5732,1.5743,1.5759,1.5761,1.5746,1.5775,1.5781,1.5816,1.5834,1.5802,1.5804,1.5907,1.5909,1.591,1.5928,0,0,0,0,0,0,1.5645,1.5655,1.567,1.5691,1.57,1.575,1.5731,1.5734,1.5748,1.5747,1.5768,1.577,1.5775,1.5812,1.5818,1.5837,1.5806,1.5905,1.5908,1.591,1.5926,1.5931,1.5934,0,0,0,0,0,1.5642,1.5672,1.567,1.5678,1.5719,1.5751,1.5756,1.5761,1.5749,1.5765,1.5775,1.577,1.5831,1.5815,1.5823,1.5843,1.5904,1.5907,1.591,1.5924,1.593,1.5934,0,0,0,0,0,0,1.5652,1.5675,1.5673,1.5711,1.5729,1.5749,1.5768,1.5766,1.5787,1.5785,1.579,1.5795,1.583,1.584,1.5822,1.5882,1.5866,1.5871,1.5875,1.588,1.5884,1.5881,1.5808,0,0,0,0,0,1.5659,1.5683,1.5702,1.5733,1.5743,1.5754,1.5768,1.5771,1.5789,1.5796,1.5809,1.5827,1.5851,1.5866,1.5888,1.5928,1.5933,1.5945,1.595,1.5953,1.5957,1.5979,1.5985,1.5921,1.5921,1.5921,0,0,1.5673,1.5688,1.5703,1.5736,1.575,1.5775,1.576,1.5787,1.5805,1.58,1.5834,1.5844,1.5864,1.5902,1.5919,1.5911,1.5976,1.5957,1.5959,1.5961,1.5983,1.5989,1.5994,1.5923,1.5922,1.5922,0,0,1.5711,1.5725,1.5753,1.5768,1.579,1.5798,1.5805,1.5826,1.5833,1.5867,1.5864,1.5886,1.5926,1.5941,1.5953,1.5999,1.5995,1.6006,1.6028,1.6049,1.6055,1.6059,1.6076,1.6081,1.601,1.601,1.601,0,1.5725,1.5762,1.5768,1.5795,1.581,1.5808,1.5837,1.5851,1.5879,1.5889,1.588,1.5931,1.5945,1.5986,1.5997,1.6008,1.6016,1.6003,1.6053,1.6058,1.6062,1.6078,1.6084,1.6011,1.6011,1.6011,1.6011,0,1.5779,1.5805,1.5825,1.5854,1.5871,1.5899,1.5909,1.5925,1.5927,1.5936,1.5971,1.5987,1.6013,1.6023,1.6025,1.6065,1.606,1.6052,1.6036,1.607,1.6084,1.6091,1.6013,1.6013,1.6012,1.6012,0,0,1.5823,1.5855,1.5863,1.5876,1.5901,1.5921,1.5949,1.5975,1.599,1.601,1.6033,1.6068,1.6062,1.6077,1.608,1.6099,1.6135,1.6089,1.609,1.6097,1.6181,1.6186,1.6193,1.6132,1.6134,1.6135,1.6179,0,1.5863,1.5914,1.592,1.5965,1.5989,1.5988,1.6013,1.6031,1.604,1.6062,1.6073,1.6097,1.6087,1.6096,1.6115,1.6126,1.6151,1.6123,1.6155,1.6156,1.6149,1.6201,1.6206,1.6247,1.6185,1.6186,1.6187,0,1.5917,1.5939,1.5986,1.6009,1.6019,1.6041,1.6067,1.6088,1.6108,1.6114,1.6131,1.6132,1.6162,1.6145,1.6186,1.6167,1.618,1.6188,1.619,1.6192,1.6173,1.6205,1.626,1.6267,1.6196,1.6195,1.6194,0,1.5944,1.5986,1.602,1.6031,1.6058,1.6074,1.6086,1.6106,1.6122,1.6144,1.6154,1.6179,1.6193,1.6212,1.622,1.6207,1.6261,1.6245,1.6266,1.6266,1.6277,1.6276,1.6336,1.6286,1.6286,1.6286,1.6286,0,1.5988,1.6017,1.6033,1.6053,1.6086,1.6094,1.6126,1.6137,1.6155,1.6178,1.6179,1.6201,1.621,1.6233,1.624,1.6273,1.6279,1.6284,1.6286,1.6284,1.6284,1.6293,1.629,1.6288,1.6287,1.6287,1.6287,0,1.6024,1.6036,1.6072,1.6096,1.6102,1.6125,1.6145,1.6166,1.6175,1.6205,1.6212,1.6227,1.6255,1.6265,1.6298,1.6303,1.6341,1.634,1.6334,1.6335,1.6356,1.6354,1.6423,1.6432,1.6377,1.6378,1.6378,0,1.6051,1.6073,1.61,1.6115,1.6128,1.6154,1.617,1.6179,1.6196,1.6223,1.624,1.6267,1.629,1.6334,1.6348,1.6374,1.6373,1.6396,1.6377,1.6375,1.6373,1.6372,1.6374,1.6399,1.6399,1.64,1.64,0,1.6098,1.6103,1.6127,1.6153,1.6173,1.6194,1.6215,1.6228,1.624,1.6259,1.6288,1.6305,1.634,1.6368,1.6394,1.6407,1.6406,1.6406,1.6413,1.6411,1.6407,1.6409,1.6344,1.6404,1.6404,1.6404,1.6404,1.6403,1.613,1.615,1.6172,1.6199,1.6216,1.6235,1.6256,1.6269,1.6293,1.6322,1.6326,1.6357,1.6378,1.6414,1.6428,1.6452,1.6446,1.6455,1.6458,1.646,1.6461,1.6404,1.6457,1.6457,1.6457,1.6457,1.6457,0,1.6177,1.6191,1.6216,1.6245,1.6267,1.6265,1.6288,1.6306,1.6333,1.6353,1.6376,1.6409,1.6437,1.6453,1.6481,1.6497,1.6497,1.6504,1.6502,1.6505,1.6465,1.6457,1.6503,1.6503,1.6503,1.6503,1.6503,1.6503,1.6203,1.6238,1.6246,1.6289,1.6303,1.6333,1.6347,1.6365,1.6381,1.6419,1.6442,1.6453,1.6472,1.6501,1.6526,1.653,1.654,1.6547,1.6551,1.6513,1.6508,1.6503,1.6496,1.6549,1.6549,1.6589,1.6589,1.659]},{"header":{"parameterUnit":"m.s-1","parameterCategory":1,"la1":30.2991,"la2":30.254,"lo1":-89.0895,"lo2":-89.0444,"dy":0.0017,"dx":0.0017,"nx":28,"ny":28,"refTime":"2025-04-10T21:00:00:Z","depth":0,"parameterNumber":3,"parameterNumberName":"V-component_of_WINDS"},"data":[0,0,0,0,0,0,0,0,0,0,0,0,0,0,0,0,0,0,0,0,0,0,0,0,0,0,0,0,0,0,0,0,0,0,0,0,0,0,0,0,0,0,0,0,0,0,0,0,0,0,0,0,0,0,0,0,0,0,-5.0887,-5.0889,0,-5.1046,-5.1048,-5.105,-5.1015,-5.1012,-5.1009,-5.1007,-5.117,-5.1176,-5.1183,0,0,0,0,0,0,0,0,0,0,0,0,0,-5.0557,-5.0563,-5.0887,-5.0889,-5.0891,-5.1046,-5.1048,-5.105,-5.1016,-5.1012,-5.1009,-5.1005,-5.1167,-5.1176,-5.1184,0,0,0,0,0,0,0,0,0,0,0,0,0,-5.0706,-5.0565,-5.0887,-5.0893,-5.0895,-5.1045,-5.1048,-5.1051,-5.1017,-5.1012,-5.1008,-5.1004,-5.1164,-5.1175,-5.1185,-5.134,0,0,-5.1218,-5.1222,0,0,0,0,0,0,0,0,-5.0698,-5.0718,-5.089,-5.0893,-5.0895,-5.1006,-5.0991,-5.1148,-5.1018,-5.0971,-5.1007,-5.1001,-5.1119,-5.1133,-5.1172,-5.1347,-5.1354,-5.1219,-5.1225,-5.123,-5.1233,0,0,0,0,0,0,0,-5.0688,-5.0711,-5.095,-5.0893,-5.0896,-5.0888,-5.0904,-5.102,-5.1068,-5.0974,-5.0972,-5.0991,-5.1119,-5.1162,-5.1176,-5.1357,-5.1218,-5.1228,-5.1234,-5.1239,-5.1669,-5.1674,0,0,0,0,0,0,-5.0675,-5.0703,-5.0945,-5.0955,-5.0784,-5.0898,-5.0916,-5.0975,-5.1066,-5.1076,-5.0995,-5.0989,-5.1146,-5.1164,-5.1182,-5.1371,-5.123,-5.124,-5.1246,-5.1664,-5.167,-5.1675,0,0,0,0,0,0,-5.0668,-5.0697,-5.0939,-5.0829,-5.0859,-5.0908,-5.0975,-5.0981,-5.1023,-5.1082,-5.109,-5.103,-5.1143,-5.1167,-5.1301,-5.1376,-5.1244,-5.1254,-5.1658,-5.1666,-5.1673,-5.1749,0,0,0,0,0,0,-5.0658,-5.0694,-5.0753,-5.083,-5.0865,-5.1056,-5.0979,-5.0987,-5.1042,-5.1036,-5.1117,-5.1126,-5.1142,-5.1286,-5.1312,-5.1388,-5.1262,-5.1651,-5.1661,-5.167,-5.174,-5.1758,-5.1773,0,0,0,0,0,-5.0647,-5.0768,-5.0756,-5.0786,-5.0939,-5.106,-5.108,-5.1095,-5.1048,-5.1108,-5.1146,-5.1124,-5.1363,-5.13,-5.1329,-5.1409,-5.1647,-5.1659,-5.167,-5.1732,-5.1754,-5.1773,0,0,0,0,0,0,-5.0698,-5.0778,-5.0766,-5.0915,-5.0981,-5.1054,-5.113,-5.1117,-5.1198,-5.1189,-5.1204,-5.1223,-5.1361,-5.1398,-5.1326,-5.1565,-5.1498,-5.1516,-5.1536,-5.1557,-5.1574,-5.1563,-5.1271,0,0,0,0,0,-5.0727,-5.0818,-5.0882,-5.1008,-5.1042,-5.108,-5.1133,-5.114,-5.1208,-5.1236,-5.1283,-5.1351,-5.1442,-5.1501,-5.1587,-5.1744,-5.1763,-5.1814,-5.1831,-5.1844,-5.186,-5.1948,-5.1973,-5.1713,-5.1713,-5.1712,0,0,-5.0787,-5.0842,-5.0898,-5.102,-5.1072,-5.1167,-5.1104,-5.1206,-5.1277,-5.1251,-5.1382,-5.1419,-5.1496,-5.1643,-5.171,-5.1678,-5.1936,-5.1859,-5.1869,-5.1878,-5.1963,-5.1987,-5.2009,-5.172,-5.1719,-5.1718,0,0,-5.0947,-5.0996,-5.1107,-5.1161,-5.124,-5.1265,-5.1291,-5.1366,-5.1391,-5.1522,-5.1505,-5.1589,-5.1744,-5.1801,-5.1849,-5.2031,-5.2015,-5.2058,-5.2147,-5.2233,-5.2253,-5.2272,-5.2339,-5.2363,-5.2074,-5.2074,-5.2074,0,-5.1012,-5.1154,-5.1166,-5.1271,-5.1326,-5.1307,-5.1421,-5.1472,-5.1575,-5.1614,-5.1576,-5.1772,-5.1822,-5.1983,-5.2028,-5.2067,-5.2099,-5.205,-5.2249,-5.2268,-5.2285,-5.235,-5.2374,-5.2079,-5.2078,-5.2078,-5.2077,0,-5.1231,-5.133,-5.141,-5.1512,-5.1575,-5.1684,-5.1714,-5.1777,-5.1777,-5.1807,-5.1941,-5.2001,-5.21,-5.2138,-5.2139,-5.23,-5.2279,-5.2245,-5.2179,-5.2315,-5.2376,-5.24,-5.2086,-5.2084,-5.2083,-5.2081,0,0,-5.1428,-5.1535,-5.1565,-5.1612,-5.1698,-5.1775,-5.1883,-5.198,-5.2035,-5.2106,-5.2199,-5.2331,-5.2301,-5.2357,-5.2364,-5.2439,-5.2582,-5.2397,-5.2399,-5.2432,-5.2766,-5.2793,-5.2821,-5.2571,-5.2576,-5.2579,-5.2761,0,-5.1597,-5.1789,-5.1804,-5.1976,-5.2069,-5.2052,-5.2147,-5.221,-5.2241,-5.2324,-5.2357,-5.2452,-5.2404,-5.2438,-5.2511,-5.2549,-5.265,-5.2536,-5.2659,-5.2663,-5.2643,-5.2852,-5.288,-5.3048,-5.2784,-5.2788,-5.2791,0,-5.182,-5.19,-5.2082,-5.2157,-5.2196,-5.2281,-5.2372,-5.2451,-5.2524,-5.254,-5.2603,-5.26,-5.2713,-5.2641,-5.2797,-5.2719,-5.277,-5.2797,-5.2804,-5.2818,-5.2737,-5.2874,-5.3102,-5.3128,-5.2828,-5.2825,-5.2822,0,-5.1949,-5.2101,-5.223,-5.227,-5.236,-5.2421,-5.2461,-5.2529,-5.2587,-5.2666,-5.2704,-5.2796,-5.2847,-5.2918,-5.2941,-5.2885,-5.3097,-5.3026,-5.3116,-5.3116,-5.3163,-5.316,-5.3405,-5.3191,-5.3191,-5.319,-5.319,0,-5.2138,-5.2251,-5.229,-5.237,-5.2496,-5.2512,-5.2637,-5.2674,-5.2734,-5.2822,-5.2812,-5.2894,-5.2918,-5.3005,-5.3023,-5.3151,-5.3173,-5.3191,-5.3195,-5.3194,-5.3192,-5.3229,-5.3219,-5.3197,-5.3196,-5.3194,-5.3193,0,-5.2304,-5.2334,-5.2475,-5.2548,-5.257,-5.266,-5.2723,-5.2801,-5.2829,-5.294,-5.2967,-5.3012,-5.3114,-5.3143,-5.3265,-5.3277,-5.3429,-5.3421,-5.3405,-5.3406,-5.3495,-5.3487,-5.3774,-5.3814,-5.3572,-5.3574,-5.3576,0,-5.2424,-5.251,-5.2593,-5.2651,-5.2694,-5.2788,-5.2847,-5.2866,-5.2929,-5.3018,-5.3086,-5.3186,-5.3268,-5.3432,-5.3476,-5.357,-5.3565,-5.3659,-5.3579,-5.3576,-5.357,-5.3566,-5.3576,-5.3675,-5.3678,-5.368,-5.3681,0,-5.2634,-5.2645,-5.2731,-5.2823,-5.2894,-5.2968,-5.3038,-5.3086,-5.3116,-5.3187,-5.3291,-5.3355,-5.348,-5.3581,-5.3676,-5.3718,-5.3706,-5.3706,-5.3732,-5.3733,-5.3722,-5.3732,-5.3449,-5.37,-5.3698,-5.3697,-5.3696,-5.3695,-5.2782,-5.2859,-5.2931,-5.3027,-5.3082,-5.3149,-5.3226,-5.3264,-5.3352,-5.3456,-5.3461,-5.3575,-5.3646,-5.3773,-5.382,-5.391,-5.3882,-5.392,-5.393,-5.3939,-5.3948,-5.3705,-5.3927,-5.3926,-5.3926,-5.3926,-5.3925,0,-5.2994,-5.3039,-5.3128,-5.3227,-5.3304,-5.3285,-5.3362,-5.3428,-5.3528,-5.3596,-5.3677,-5.3798,-5.3895,-5.3947,-5.4045,-5.4107,-5.4104,-5.4133,-5.413,-5.414,-5.3966,-5.3935,-5.4133,-5.4133,-5.4133,-5.4133,-5.4133,-5.4133,-5.3114,-5.3244,-5.3264,-5.3422,-5.3466,-5.3577,-5.3624,-5.3686,-5.374,-5.3875,-5.3957,-5.399,-5.4052,-5.4154,-5.4244,-5.4256,-5.4294,-5.4326,-5.4336,-5.4173,-5.4152,-5.4132,-5.4103,-5.4333,-5.4334,-5.4503,-5.4505,-5.4506]}]]